User: anonymous   Login
Location: Unspecified
(0.0000°N, 0.0000°E)
Time: 00:22:50
(UTC+00:00)
Language:

LQSAT - Orbit

View from above orbital plane
View from above orbital plane
View from above satellite
View from above satellite

Ground track
Ground track

The orbit data is extracted from the following two-line orbital elements,

1 40958U 15057A   17231.76339441  .00000033  00000-0  12989-4 0  9994
2 40958  97.9742 305.9600 0017202 219.1777 140.8183 14.72977817100475
Epoch (UTC): 19 August 2017 18:19:17
Eccentricity: 0.0017202
inclination: 97.9742°
perigee height: 639 km
apogee height: 663 km
right ascension of ascending node: 305.9600°
argument of perigee: 219.1777°
revolutions per day: 14.72977817
mean anomaly at epoch: 140.8183°
orbit number at epoch: 10047

The dashed part of the orbit path shows where the satellite is in the earth's shadow,  

DLR